Location: Dumpton Point
(51.3500°N, 1.4433°E)
Time: 15:51:54
(UTC+00:00)

Vanguard 1 - All Passes

Search period start: 11 April 2021 00:00
Search period end: 21 April 2021 00:00
Orbit: 648 x 3834 km, 34.3° (Epoch: 10 April)

Date Brightness Start Highest point End Pass type
(mag) Time Alt. Az. Time Alt. Az. Time Alt. Az.
11 Apr - 13:42:31 10° S 13:55:41 22° SE 14:10:45 10° E daylight
11 Apr - 15:58:46 10° SW 16:17:41 42° SSE 16:37:26 10° E daylight
11 Apr - 18:20:24 10° WSW 18:41:44 48° S 18:59:57 10° ESE daylight
11 Apr - 20:45:30 10° W 21:04:50 36° SSW 21:19:11 10° SSE visible
11 Apr - 23:15:58 10° W 23:24:46 15° SW 23:32:05 10° SSW visible
12 Apr - 14:01:10 10° S 14:15:46 27° SE 14:32:53 10° E daylight
12 Apr - 16:18:57 10° SW 16:38:21 45° SSE 16:58:28 10° ESE daylight
12 Apr - 18:41:16 10° WSW 19:02:31 47° S 19:20:30 10° SE visible
12 Apr - 21:06:58 10° W 21:25:08 32° SW 21:38:53 10° SSE visible
13 Apr - 12:12:10 10° SE 12:16:01 11° ESE 12:20:06 10° ESE daylight
13 Apr - 14:20:23 10° SSW 14:35:59 32° SE 14:54:35 10° E daylight
13 Apr - 16:39:20 10° SW 16:59:05 47° S 17:19:24 10° ESE daylight
13 Apr - 19:02:14 10° WSW 19:23:14 45° SSW 19:40:52 10° SE visible
13 Apr - 21:28:41 10° W 21:45:18 27° SW 21:58:13 10° S visible
14 Apr - 12:26:48 10° SSE 12:35:44 16° SE 12:46:12 10° E daylight
14 Apr - 14:40:01 10° SSW 14:56:20 37° SSE 15:16:01 10° E daylight
14 Apr - 16:59:53 10° WSW 17:19:53 48° S 17:40:13 10° ESE daylight
14 Apr - 19:23:19 10° W 19:43:52 42° SSW 20:01:05 10° SE visible
14 Apr - 21:50:49 10° W 22:05:19 22° SW 22:17:00 10° S visible
15 Apr - 12:44:27 10° S 12:55:35 21° SE 13:09:22 10° E daylight
15 Apr - 14:59:56 10° SW 15:16:50 41° SSE 15:37:16 10° E daylight
15 Apr - 17:20:34 10° WSW 17:40:43 49° S 18:00:56 10° ESE daylight
15 Apr - 19:44:32 10° W 20:04:23 38° SSW 20:21:03 10° SSE visible
15 Apr - 22:13:43 10° W 22:25:13 17° SW 22:34:56 10° SSW visible
16 Apr - 13:03:06 10° S 13:15:34 26° SE 13:31:39 10° E daylight
16 Apr - 15:20:06 10° SW 15:37:26 44° SSE 15:58:23 10° E daylight
16 Apr - 17:41:22 10° WSW 18:01:31 48° S 18:21:31 10° ESE daylight
16 Apr - 20:05:55 10° W 20:24:47 33° SW 20:40:45 10° SSE visible
16 Apr - 22:38:35 10° WSW 22:44:58 12° WSW 22:50:47 10° SW visible
17 Apr - 13:22:20 10° SSW 13:35:42 31° SE 13:53:26 10° E daylight
17 Apr - 15:40:27 10° SW 15:58:08 47° SSE 16:19:23 10° ESE daylight
17 Apr - 18:02:16 10° WSW 18:22:17 45° SSW 18:41:56 10° SE daylight
17 Apr - 20:27:32 10° W 20:45:02 29° SW 21:00:04 10° S visible
18 Apr - 11:29:52 10° SSE 11:36:14 13° SE 11:43:44 10° E daylight
18 Apr - 13:41:58 10° SSW 13:55:59 35° SSE 14:14:58 10° E daylight
18 Apr - 16:00:58 10° WSW 16:18:54 48° S 16:40:17 10° ESE daylight
18 Apr - 18:23:16 10° W 18:42:59 42° SSW 19:02:10 10° SE daylight
18 Apr - 20:49:33 10° W 21:05:10 24° SW 21:18:51 10° S visible
19 Apr - 11:47:11 10° SSE 11:56:02 18° SE 12:07:23 10° E daylight
19 Apr - 14:01:54 10° SW 14:16:23 39° SSE 14:36:17 10° E daylight
19 Apr - 16:21:35 10° WSW 16:39:43 48° S 17:01:03 10° ESE daylight
19 Apr - 18:44:24 10° W 19:03:35 38° SSW 19:22:09 10° SSE daylight
19 Apr - 21:12:16 10° W 21:25:10 18° SW 21:36:47 10° SSW visible
20 Apr - 12:05:46 10° S 12:15:56 23° SE 12:29:49 10° E daylight
20 Apr - 14:22:02 10° SW 14:36:56 43° SSE 14:57:28 10° E daylight
20 Apr - 16:42:19 10° WSW 17:00:32 47° S 17:21:41 10° ESE daylight
20 Apr - 19:05:42 10° W 19:24:05 34° SSW 19:41:49 10° SSE visible
20 Apr - 21:36:32 10° WSW 21:45:03 13° SW 21:53:01 10° SSW visible
